Theta_e
357 357 361 360 358 362 362 360 358 359 360 359 361 362 362 360 360 360 361 359 356 357 357 356 357 358 356 355 356 359 358 358 359 356 357 355 357 358 367 366 365 365 365 364 362 358 357 358 356 356 357 356 356 356 357 358 359 359 358 359 359 359 358 358 358 358 358 359 358 358 357 357 357 357 356 356 356 356 356 356 356 356 357 357 357
355 355 360 363 363 362 358 360 358 360 360 360 363 362 361 359 358 356 353 357 358 359 357 355 354 355 356 355 355 356 359 359 361 359 361 359 358 358 368 367 366 366 366 366 364 361 358 357 358 356 357 357 356 356 356 357 358 359 359 359 359 359 359 359 358 359 359 359 360 359 359 358 358 357 357 357 357 356 356 357 357 356 357 358 358
359 360 361 362 357 354 353 352 353 354 352 352 353 357 363 362 360 358 357 354 354 354 357 357 358 356 357 356 356 358 359 360 360 359 357 360 359 360 361 367 367 367 367 367 365 363 361 359 358 357 357 357 357 357 357 357 359 359 359 359 358 358 359 360 359 360 360 360 359 359 360 359 359 359 359 358 358 358 357 357 357 357 358 358 358
361 360 359 358 354 355 353 352 351 355 354 358 357 356 355 353 355 360 357 361 361 359 359 356 357 356 358 356 358 357 357 359 357 356 358 360 361 363 364 364 368 367 368 368 367 365 364 362 360 358 358 357 358 358 358 358 358 359 360 360 359 358 359 359 360 360 361 360 360 360 360 359 360 359 359 359 359 359 359 359 359 359 359 359 359
366 359 352 356 353 351 351 348 351 353 352 352 351 351 349 349 354 359 359 358 357 358 359 357 355 357 357 357 357 357 358 359 359 357 356 358 360 360 361 361 364 369 368 368 367 367 365 365 363 360 359 358 358 358 358 358 359 360 361 362 361 362 361 360 360 360 360 362 362 361 360 360 360 360 360 360 360 360 360 360 360 360 360 359 360
361 359 358 355 350 350 348 350 351 352 352 352 352 350 347 351 353 352 352 355 355 357 356 357 357 357 357 358 357 357 357 357 358 356 355 357 358 362 360 359 358 362 367 367 366 367 367 366 364 362 361 360 359 359 359 359 359 359 360 361 363 363 362 361 360 361 362 362 363 363 362 361 361 361 361 360 360 361 360 360 360 360 360 360 361
358 357 356 356 352 351 350 349 348 351 350 352 349 347 346 344 341 349 350 357 354 354 355 355 355 353 351 354 354 357 357 355 356 357 356 358 359 358 360 359 358 359 359 363 369 366 366 367 366 364 363 363 361 360 359 359 360 360 359 361 363 363 364 364 364 363 363 363 363 363 363 362 362 362 361 361 361 361 361 362 362 361 361 361 361
357 355 352 352 351 350 349 346 346 348 350 351 349 348 347 344 345 345 348 348 349 352 353 354 353 353 357 354 353 356 356 356 356 356 355 358 358 359 359 360 360 358 360 360 362 366 364 366 366 365 365 364 364 362 361 360 360 360 360 359 362 363 364 364 364 364 363 364 364 363 363 363 363 362 362 362 361 362 362 362 362 362 362 362 362
354 353 351 348 349 346 346 342 345 347 349 354 348 345 346 343 344 347 348 347 347 346 347 351 351 352 352 354 356 354 353 356 357 356 357 357 357 357 358 360 359 358 360 358 362 363 365 364 366 366 365 365 365 365 363 363 362 361 361 360 360 362 363 364 364 364 364 364 364 364 363 363 363 363 363 362 362 362 362 362 362 363 363 362 362
353 351 350 346 344 343 341 340 339 341 343 347 347 348 348 345 343 345 347 348 346 346 348 349 349 351 351 351 354 353 356 356 355 357 357 357 358 358 358 358 358 357 356 359 358 360 364 366 366 366 365 365 365 365 364 364 363 362 361 361 361 361 363 363 363 363 364 364 364 363 363 362 362 362 362 363 363 362 362 362 362 362 362 363 363
348 349 345 345 344 340 339 339 337 338 338 338 340 344 344 344 342 344 347 348 347 349 350 349 348 350 349 350 351 351 351 355 355 356 356 355 355 357 356 358 358 358 360 360 358 361 362 366 365 365 366 364 365 365 365 365 364 363 361 361 361 361 361 363 363 363 364 364 363 363 363 362 362 362 362 362 362 361 361 362 362 362 362 361 361
351 349 346 343 341 341 340 340 339 337 335 334 335 338 339 339 339 340 343 346 347 346 347 347 348 348 348 350 351 352 353 356 352 353 355 356 357 357 354 356 357 357 357 359 359 358 361 363 364 364 361 364 364 365 365 364 364 364 363 362 361 361 361 362 364 364 364 364 363 363 362 362 362 362 361 361 361 360 360 360 361 361 362 362 361
356 356 351 347 345 345 343 343 341 340 338 338 339 341 344 344 344 343 340 341 342 345 348 349 346 344 346 347 349 352 351 353 353 353 353 355 356 355 356 356 356 356 359 359 359 357 357 362 364 365 364 363 367 363 364 364 363 363 364 363 363 362 362 362 364 363 363 363 363 362 360 360 361 361 361 361 360 360 360 359 359 360 360 361 360
361 359 355 353 351 349 346 344 344 343 341 341 341 341 341 341 341 341 343 342 341 345 346 346 341 340 341 342 346 350 352 352 352 352 354 354 354 356 357 354 352 353 356 358 358 356 355 358 362 362 364 365 365 366 365 365 364 362 363 363 364 364 364 364 364 364 364 363 364 362 362 360 360 360 361 360 360 359 359 358 358 359 359 360 360
363 362 359 357 354 352 351 351 350 348 345 342 343 342 342 342 342 340 341 344 344 348 348 346 342 346 346 340 338 337 344 348 350 351 353 353 353 352 354 352 353 354 355 355 355 357 354 355 358 360 362 363 362 361 364 364 361 363 362 361 362 365 365 366 366 366 365 364 364 364 362 361 360 361 361 360 360 359 359 358 358 358 358 359 359
358 359 358 358 358 355 353 354 353 352 349 347 346 345 344 344 344 344 343 339 342 342 347 346 344 345 335 337 336 335 333 337 344 348 348 352 350 351 352 352 353 356 356 353 351 354 355 356 355 357 362 364 364 361 359 359 359 362 365 364 361 361 364 366 366 366 366 365 364 363 362 361 360 360 362 362 361 360 359 359 358 358 358 358 358
356 355 355 356 357 356 356 355 354 354 352 351 349 347 347 347 346 345 344 344 341 344 346 349 346 347 343 340 334 331 332 336 338 346 350 348 347 348 350 351 351 354 354 353 354 355 354 355 357 358 359 362 364 363 361 360 360 360 362 366 363 360 360 363 366 366 366 366 366 365 363 361 360 360 362 363 362 361 360 359 359 358 358 358 358
353 352 353 353 355 356 357 355 354 354 352 351 349 350 349 346 346 345 346 346 345 343 344 348 349 347 347 346 343 336 336 339 340 334 346 346 350 350 350 348 351 353 355 355 354 355 355 355 356 356 359 359 360 363 362 360 360 357 359 357 364 361 360 360 363 366 366 367 367 366 365 363 361 362 363 364 364 363 362 360 359 359 359 358 358
353 354 354 355 355 355 356 355 353 353 353 354 351 350 350 349 349 347 346 346 347 343 343 344 349 350 348 347 347 345 345 344 339 339 334 344 346 346 345 347 348 351 354 355 351 353 352 355 353 354 357 360 359 359 363 363 359 359 359 358 359 360 360 360 360 363 365 366 367 367 367 367 364 362 362 362 364 364 363 362 361 360 359 359 359
352 355 353 356 356 357 356 356 353 352 352 351 348 349 349 349 350 350 349 347 347 343 343 344 344 342 349 348 347 348 349 348 345 342 337 332 337 343 345 348 349 346 349 353 352 353 353 354 354 353 354 358 359 358 361 362 361 360 357 357 358 360 360 359 360 361 363 365 367 368 368 368 368 365 363 364 365 365 364 363 363 361 361 360 360
352 352 355 355 354 355 355 355 356 356 353 352 350 346 350 353 351 348 348 348 348 349 348 347 345 342 345 344 345 344 345 348 349 348 340 334 333 337 337 346 344 345 348 350 352 353 349 351 355 354 355 357 359 360 358 360 359 362 360 357 359 359 359 359 359 363 363 364 367 369 369 370 369 369 369 368 366 366 365 364 364 364 362 362 362
347 348 350 348 354 356 353 350 351 349 351 354 352 349 343 344 349 351 351 350 352 350 345 346 348 348 341 337 335 337 338 339 346 341 342 341 333 335 339 340 341 344 347 349 353 357 351 353 353 353 356 357 358 358 361 361 360 358 357 357 358 358 358 356 357 361 362 362 363 368 370 370 370 370 370 370 370 368 367 367 366 366 365 365 364
345 346 345 345 347 352 351 349 350 349 353 352 353 349 349 349 347 344 345 345 348 349 345 345 344 346 345 341 337 334 333 341 342 340 339 336 336 336 336 335 340 345 351 352 353 350 350 351 353 352 358 359 357 358 359 361 359 357 356 355 355 356 356 356 355 357 356 357 360 363 366 368 368 368 369 369 369 370 370 368 368 367 367 367 366
344 343 343 343 345 345 346 347 347 348 346 350 349 348 345 347 351 351 348 350 347 345 346 345 344 343 344 344 342 341 341 337 337 341 339 338 337 334 334 336 341 345 349 353 351 349 353 349 352 352 354 358 358 359 357 357 357 356 357 356 354 353 354 354 354 354 353 352 352 356 359 362 364 365 366 367 368 369 369 370 369 369 368 368 367
342 342 342 343 344 344 344 342 343 345 344 345 346 348 349 351 345 348 349 348 347 346 347 348 346 343 342 344 344 343 339 341 342 336 340 340 339 336 336 340 339 342 349 349 347 349 352 355 351 353 354 356 356 356 356 357 356 356 357 354 352 352 352 352 351 351 351 351 351 353 354 355 356 358 360 362 364 366 368 369 369 369 369 369 369
340 341 342 343 342 342 343 343 344 344 343 344 343 343 343 341 343 345 343 346 348 347 346 345 348 347 347 344 345 344 343 343 341 340 338 341 337 334 336 338 339 340 343 344 344 341 347 350 349 354 356 356 356 358 359 358 359 356 357 355 353 349 350 350 350 349 349 349 349 350 351 352 353 354 356 357 359 361 363 365 367 368 369 368 367
340 341 343 342 341 341 342 341 342 342 342 342 341 342 342 342 342 344 345 345 345 344 343 339 340 342 343 348 340 343 343 344 343 342 343 341 339 336 334 334 331 339 338 340 342 341 341 347 346 351 356 357 358 359 361 361 358 355 354 359 357 351 348 348 348 348 347 347 347 348 348 349 351 353 353 354 354 358 359 360 361 362 363 363 363
341 342 340 341 340 340 340 340 341 341 342 342 341 339 340 340 340 343 344 343 343 345 344 343 343 348 348 350 343 348 348 347 346 343 344 343 342 341 341 340 331 329 337 339 338 339 346 345 348 351 355 357 359 361 360 358 358 355 356 357 357 357 350 347 346 346 345 345 345 345 345 346 346 348 349 350 350 350 352 354 355 356 356 357 357
340 341 340 341 341 340 340 339 340 340 340 341 340 340 340 340 339 340 341 343 344 344 342 343 343 346 349 346 345 343 344 343 348 346 345 346 345 345 343 342 336 330 331 332 333 336 342 342 343 349 353 357 360 361 361 361 357 359 359 359 358 356 350 344 345 344 345 344 344 343 344 344 344 344 346 347 347 347 348 348 349 351 352 351 352
339 340 341 340 340 340 340 339 339 339 339 339 340 340 340 338 338 339 340 342 344 346 345 342 337 340 346 347 340 337 341 343 343 344 343 345 347 345 341 337 337 333 334 331 331 339 339 347 345 348 357 356 355 361 362 362 357 364 360 359 357 357 346 344 345 345 344 343 342 342 342 342 343 343 342 343 344 345 347 347 347 347 348 349 350
340 340 340 339 339 339 340 339 338 338 339 339 340 341 342 340 341 338 337 338 336 337 339 339 340 343 343 338 338 340 341 341 340 339 343 343 345 346 343 341 339 341 338 335 332 338 341 338 344 347 352 354 357 358 360 361 360 361 361 361 362 354 348 353 343 343 343 342 341 340 339 338 340 341 340 340 341 342 344 345 345 345 346 347 347
339 339 339 339 339 339 338 337 338 338 338 338 339 340 341 343 342 337 337 337 336 336 335 335 336 338 337 336 338 338 338 341 341 340 340 342 342 344 342 341 339 339 337 339 334 333 343 340 340 345 349 351 357 355 358 359 362 359 364 363 366 356 363 362 348 342 342 341 340 340 338 337 338 339 339 340 340 342 343 342 342 342 343 344 344
340 339 339 340 341 341 342 342 341 342 341 340 341 342 342 342 339 339 339 338 335 337 337 337 337 337 335 334 335 336 338 337 338 337 340 341 342 344 344 345 342 344 344 340 337 337 342 345 341 340 345 350 349 353 351 354 361 363 360 366 363 362 364 362 364 348 341 339 339 338 338 337 337 337 338 339 339 341 342 343 342 341 341 340 341
340 339 340 340 341 341 341 342 343 345 344 341 340 342 340 341 340 340 340 337 336 335 335 334 336 336 334 335 334 334 337 336 337 338 337 338 339 338 340 340 341 338 341 340 338 337 337 341 342 343 342 345 346 351 350 350 357 360 361 364 367 366 366 366 362 365 344 340 337 336 337 337 337 336 337 338 338 339 340 340 340 338 338 338 338
339 339 339 340 340 342 342 342 344 346 344 342 341 340 341 340 340 337 337 338 335 333 331 332 331 332 333 333 333 334 335 335 336 337 338 338 340 338 338 339 338 339 340 343 340 336 336 337 340 339 341 342 343 343 346 349 355 361 357 354 360 362 362 364 365 365 349 340 337 336 336 336 337 337 336 336 336 336 336 336 336 336 336 336 335
337 340 341 341 342 343 343 343 344 344 343 343 341 339 340 339 338 338 336 337 336 333 331 331 331 332 332 331 331 333 333 333 335 339 341 339 337 340 338 340 341 340 337 340 343 339 337 333 338 339 340 340 344 346 346 351 353 355 358 358 363 359 361 361 364 365 357 341 337 336 336 336 336 336 335 335 335 333 333 334 333 333 333 333 333
339 339 340 341 342 343 343 343 342 343 341 341 341 341 341 341 339 336 338 339 337 332 331 331 328 330 329 329 330 331 333 333 331 337 341 340 338 337 336 338 339 341 340 345 345 346 341 337 337 341 343 342 342 346 346 348 351 351 353 354 356 358 361 360 360 359 352 341 337 336 336 336 336 336 335 335 334 333 332 332 331 331 331 330 330
333 333 334 335 339 342 343 342 343 343 344 344 343 343 341 340 339 339 338 336 333 331 331 330 329 329 328 328 328 329 330 331 329 335 336 340 336 339 338 335 337 339 339 338 343 343 342 340 340 337 341 339 342 344 347 349 345 347 349 353 356 358 358 353 357 363 363 365 360 358 342 340 337 335 336 336 335 333 332 330 329 327 327 326 324
331 332 333 334 335 339 342 343 342 341 342 343 343 343 341 339 337 337 337 336 332 330 331 329 329 328 328 327 326 327 328 329 331 333 332 338 339 338 338 336 337 339 341 339 340 341 340 339 340 339 338 340 341 341 346 351 351 350 346 350 352 353 350 353 355 356 361 359 355 350 355 354 348 348 336 333 334 333 332 330 327 324 324 322 321
329 330 330 332 333 335 335 338 341 343 343 343 343 343 341 338 337 336 335 334 331 330 330 327 328 328 327 327 327 326 328 329 330 331 331 334 341 339 339 337 337 337 337 337 337 339 339 338 337 336 339 339 343 345 347 350 349 348 347 349 347 346 348 352 354 354 360 354 355 357 353 351 347 346 336 332 333 333 332 331 330 329 325 323 321
331 331 333 333 334 334 335 337 342 344 342 341 342 342 338 336 336 335 334 334 331 329 328 328 327 327 327 326 325 325 328 322 322 323 324 323 332 335 339 338 337 339 338 334 335 336 338 338 338 337 337 338 338 340 341 345 344 342 346 353 348 349 350 349 355 359 361 357 359 359 358 364 361 359 363 362 358 342 340 336 343 335 329 323 322
332 332 335 335 334 335 334 335 338 342 341 343 337 330 329 334 334 334 333 334 333 330 328 326 325 326 325 325 327 324 320 322 322 321 321 320 320 326 336 341 342 339 335 337 337 338 337 333 334 334 333 333 336 338 341 343 346 346 344 346 344 345 347 351 352 357 362 357 354 355 359 361 359 360 360 360 364 360 362 356 356 351 339 328 326
332 336 335 334 333 333 333 335 337 340 341 342 332 325 325 325 334 335 333 333 333 331 328 327 325 325 324 324 325 325 325 323 326 322 321 319 319 319 319 322 327 334 337 338 336 336 338 335 335 335 334 335 336 339 338 338 339 341 342 348 346 348 349 348 343 345 359 361 357 349 356 361 359 353 355 360 360 363 361 360 348 342 336 330 328
332 332 332 333 334 334 335 336 337 339 339 335 326 324 325 325 326 334 333 332 332 332 330 328 326 325 324 324 324 325 325 325 326 326 324 320 318 317 317 317 319 322 325 335 334 335 338 334 334 336 335 334 337 338 337 334 338 340 343 341 343 347 345 340 345 342 352 359 355 352 352 355 355 352 357 360 360 360 360 349 337 338 333 329 328
331 332 333 331 333 334 335 334 333 335 337 332 324 323 323 322 323 328 333 332 333 332 332 331 327 326 325 325 324 324 325 320 325 325 325 325 319 316 315 315 316 316 321 323 325 337 336 336 334 334 336 337 336 337 339 340 342 339 339 342 344 346 347 347 347 347 351 358 357 349 344 351 354 356 352 357 358 360 362 338 335 336 334 332 330
331 330 331 331 332 333 332 332 333 334 336 329 325 323 321 321 321 325 334 332 332 333 333 332 330 327 327 325 324 323 324 324 325 324 324 323 322 323 325 327 330 329 320 320 321 322 329 336 336 335 338 339 337 339 341 342 340 340 340 344 349 348 348 347 350 350 353 361 351 349 343 346 356 353 351 355 357 359 360 349 332 334 333 329 328
329 330 330 331 332 332 331 330 330 330 331 327 324 322 320 318 318 322 334 332 332 333 334 333 330 329 327 326 326 325 324 324 325 322 321 320 319 320 321 323 325 329 336 338 336 337 338 338 337 338 340 341 340 341 343 343 343 345 348 344 348 350 350 351 350 351 348 358 357 348 338 342 352 351 351 354 355 357 360 338 333 332 331 326 327
331 331 332 332 333 333 333 331 329 331 329 323 321 320 318 317 318 333 332 331 331 332 334 334 332 331 329 327 326 324 324 325 320 316 315 318 318 319 321 322 323 325 330 327 329 333 338 341 340 339 338 338 331 340 341 343 349 347 341 348 351 350 348 345 343 345 342 353 350 347 342 341 343 347 350 354 354 354 356 356 331 330 327 325 326
327 327 329 327 330 332 332 332 329 330 332 326 317 317 315 316 319 334 330 329 330 333 334 334 334 330 329 329 327 328 326 326 320 315 314 311 318 319 320 321 322 324 326 335 327 322 324 323 324 326 326 325 324 323 323 325 338 343 344 341 339 343 343 340 338 339 341 343 345 348 340 339 344 350 348 350 353 352 353 353 355 328 325 323 323
326 328 327 325 327 332 330 330 328 330 326 323 313 312 311 314 322 335 331 328 329 332 332 335 334 330 330 329 329 329 328 328 319 314 313 314 318 318 319 319 320 321 325 331 337 336 320 321 322 323 324 325 324 323 323 324 324 332 345 339 338 338 336 337 336 336 338 341 343 347 341 336 344 351 347 350 351 351 351 353 351 335 323 320 320
329 333 330 330 331 331 327 326 329 329 330 325 311 312 311 314 322 338 335 330 330 331 330 334 335 333 331 329 325 322 323 321 313 312 311 311 316 317 319 319 318 318 323 330 335 335 337 335 336 335 334 328 334 339 339 323 326 334 341 339 339 336 334 335 335 338 335 335 341 356 343 344 344 349 348 345 343 350 351 352 350 350 348 347 339
Wind_Speed
7 6 5 5 5 5 5 5 6 7 6 5 5 5 5 5 5 5 5 5 5 5 4 5 5 5 5 4 4 4 4 5 5 4 5 4 4 6 10 10 9 11 11 11 11 11 10 11 11 12 13 13 13 13 14 13 13 13 12 12 13 13 13 12 12 12 11 11 11 10 10 10 9 9 9 9 9 9 9 9 9 9 9 8 9
8 7 5 5 4 4 6 7 6 6 6 8 6 6 7 5 4 4 7 6 6 5 5 5 6 5 4 5 4 4 3 4 5 5 5 5 5 4 12 10 11 11 12 12 12 13 13 12 12 12 13 14 14 14 14 14 14 13 13 13 13 13 13 13 13 13 12 12 11 11 11 10 10 10 10 10 10 10 10 10 10 10 9 9 8
8 7 5 5 6 5 2 2 3 5 6 9 11 11 10 9 6 6 6 6 7 8 7 6 6 6 6 5 5 4 4 4 5 6 6 5 5 5 6 12 11 12 12 12 13 14 14 13 13 13 13 14 15 15 15 15 14 14 14 13 13 13 13 13 13 13 13 12 12 11 11 11 11 11 10 10 11 11 10 11 10 10 10 9 8
8 8 7 7 4 5 5 5 6 8 7 6 5 6 6 7 10 5 6 7 6 7 7 7 6 6 6 6 6 5 5 5 6 6 6 5 5 5 6 7 13 13 13 13 14 15 15 16 14 14 14 15 16 16 16 16 16 15 14 14 14 13 13 13 13 14 13 13 13 12 12 12 12 11 11 11 11 11 11 11 10 10 10 9 9
5 4 4 2 3 3 5 5 5 4 9 11 13 10 10 10 10 9 6 6 7 8 8 8 9 7 6 7 6 6 6 6 6 6 7 7 6 6 7 7 8 14 14 13 15 15 16 16 16 15 15 15 16 16 16 16 16 15 15 15 14 13 13 14 14 14 14 12 12 13 13 13 12 12 12 12 12 12 11 11 11 10 10 10 9
4 5 3 4 5 4 3 4 4 4 5 6 7 8 10 10 8 9 10 7 6 7 7 8 8 8 7 6 6 6 6 7 7 7 7 8 7 6 7 7 7 7 8 14 14 15 15 16 17 16 16 16 16 16 17 17 16 16 16 15 14 13 14 14 15 14 13 12 13 12 12 12 13 13 12 13 12 12 12 12 11 11 10 11 10
3 1 1 1 2 2 2 1 5 6 5 5 5 5 7 9 11 10 10 10 8 7 8 9 9 6 10 8 8 7 7 8 8 8 8 8 8 8 7 7 7 7 8 7 12 14 15 16 17 17 16 16 17 17 18 17 17 16 16 15 14 14 13 14 14 13 13 13 13 13 12 12 13 13 13 13 13 12 12 12 12 11 11 11 11
1 5 4 6 7 7 6 5 7 7 7 6 6 5 5 5 9 11 10 11 11 9 7 7 8 8 6 5 8 9 8 8 8 8 8 8 8 9 8 8 8 7 7 7 7 10 16 16 16 17 17 16 17 18 18 18 17 17 17 16 15 15 14 14 13 13 13 13 13 13 13 13 13 13 13 13 13 12 13 13 12 12 12 12 12
5 5 6 8 8 7 5 6 6 7 7 7 9 8 6 5 8 9 10 9 10 13 10 7 7 8 6 8 8 8 11 9 9 9 8 9 9 9 8 8 8 8 7 8 8 7 14 17 16 17 17 16 16 17 18 18 19 17 17 17 16 15 14 15 14 14 14 14 13 13 13 13 13 14 14 14 14 13 13 13 13 13 12 12 12
7 6 6 8 7 7 4 5 7 7 7 7 8 8 8 8 10 12 12 10 10 11 10 8 6 6 6 8 8 7 8 9 9 9 9 9 9 9 9 8 8 9 9 9 9 9 7 14 16 17 17 17 17 17 17 17 18 18 18 17 17 17 15 14 14 14 14 14 14 14 14 14 14 14 14 14 14 14 13 13 13 13 12 12 12
10 8 8 8 8 8 8 10 9 9 7 7 8 8 9 9 11 11 11 12 10 10 10 7 7 7 6 8 7 7 7 8 9 10 9 10 10 9 9 9 9 9 9 9 9 9 9 7 9 10 12 19 18 18 18 17 17 18 18 18 18 18 17 15 15 14 14 13 13 13 14 14 14 14 14 14 15 14 14 14 14 13 13 13 13
7 8 11 10 10 11 12 11 11 10 10 11 10 9 10 11 12 12 11 9 10 11 11 8 7 8 10 9 10 10 10 8 8 12 12 11 10 9 10 9 9 9 10 9 9 10 9 9 8 8 11 16 21 19 19 18 17 17 19 19 19 19 19 17 15 15 14 14 14 14 14 15 15 15 15 15 15 15 15 15 15 14 15 14 14
7 6 8 9 10 9 10 10 8 8 9 9 8 9 10 11 12 12 14 13 9 8 11 10 9 10 11 12 12 11 12 11 13 14 14 12 10 10 9 9 9 9 9 9 9 10 10 9 9 9 9 7 13 21 20 19 18 18 19 20 20 20 19 19 17 16 16 16 16 16 16 15 16 16 16 16 15 16 16 16 15 15 15 16 15
5 5 6 6 6 6 7 7 7 8 9 10 10 10 11 10 10 10 11 14 12 10 10 9 10 10 9 9 10 9 11 13 15 16 15 14 12 12 10 10 11 10 9 9 10 10 11 10 10 10 10 10 9 9 13 15 17 19 19 19 20 20 20 20 19 18 17 17 17 16 16 16 16 16 17 16 16 16 16 16 16 16 16 16 16
5 5 5 6 7 7 7 8 9 9 9 10 11 12 11 12 13 11 9 11 12 10 10 11 8 8 8 7 8 8 7 9 11 16 15 14 14 14 13 12 12 11 9 9 9 10 10 11 11 11 11 11 10 10 10 11 13 17 20 20 20 20 21 21 21 20 19 18 17 17 16 16 16 16 16 17 17 17 17 17 17 17 16 17 16
6 7 5 6 7 8 8 8 8 8 9 9 10 11 11 11 12 13 13 11 10 11 10 11 9 6 6 7 7 4 8 8 10 10 15 15 15 15 13 12 12 12 10 11 10 10 9 10 12 11 11 11 10 10 11 11 15 17 19 21 21 20 20 21 21 21 20 19 18 17 16 16 16 17 17 17 18 18 17 17 17 17 17 17 16
6 7 7 7 8 7 7 8 9 9 8 9 10 10 10 9 11 10 12 11 11 10 8 9 11 8 7 3 5 5 9 5 8 8 10 11 18 17 14 14 13 12 11 11 11 10 10 11 11 11 12 11 12 11 11 11 11 12 14 17 20 21 21 21 21 22 21 20 19 18 17 16 17 17 18 18 18 18 18 18 18 17 17 17 17
7 7 8 7 8 8 8 9 9 8 9 10 9 8 8 8 8 8 11 12 11 10 10 7 8 10 12 11 7 6 5 5 6 7 6 11 11 11 13 15 14 13 12 12 12 12 11 11 11 11 12 12 12 12 12 12 11 11 11 13 19 19 19 20 20 21 21 20 19 19 17 17 16 17 18 19 19 19 19 18 18 17 17 17 17
7 7 7 7 7 6 7 8 8 8 8 7 7 7 6 7 7 8 9 8 10 11 12 9 8 10 11 13 14 13 11 5 6 4 9 7 9 10 12 13 14 14 13 13 14 12 13 12 12 12 12 12 12 12 12 12 14 14 15 14 15 19 20 20 20 20 20 20 20 19 18 17 17 17 18 18 18 19 18 18 18 17 17 17 17
7 7 7 6 6 6 6 7 8 8 7 6 7 7 6 6 7 8 8 7 9 10 12 10 10 9 9 10 13 14 15 14 13 8 8 8 7 8 13 10 8 11 13 13 14 14 12 13 13 12 11 12 12 12 12 12 13 13 13 16 15 14 18 19 20 19 19 20 20 19 19 18 17 17 17 18 18 18 18 18 18 17 17 17 17
6 7 7 7 5 4 6 6 6 6 5 5 4 8 10 7 7 7 8 8 8 9 10 11 9 11 6 7 10 11 12 12 10 8 8 9 13 12 14 11 12 12 11 11 12 13 14 13 11 11 10 11 11 12 12 12 12 12 14 15 16 16 16 17 18 19 19 19 20 19 19 19 18 18 17 16 19 19 19 18 18 18 18 17 17
5 6 5 7 7 6 5 6 7 7 6 7 7 5 6 9 10 8 9 10 9 10 11 12 10 6 3 3 7 10 11 11 8 7 9 11 13 14 12 13 12 12 10 9 8 12 13 12 12 12 11 11 11 12 12 13 12 12 13 16 16 18 19 18 18 19 20 19 19 19 19 19 19 18 18 18 18 19 18 18 19 18 18 19 19
5 4 5 6 6 5 6 6 6 5 6 7 5 5 7 7 6 8 11 13 10 10 11 12 11 9 9 8 8 8 12 13 9 8 9 10 11 15 15 16 15 14 10 7 5 9 12 13 12 12 11 11 11 11 12 12 14 14 14 13 16 17 18 20 20 21 20 20 20 20 20 20 20 19 19 19 19 18 18 19 18 19 18 18 18
4 5 4 6 5 5 5 5 5 6 7 6 7 7 8 8 7 6 7 9 11 11 10 11 13 11 13 11 12 11 10 11 13 7 8 10 11 13 15 13 14 13 10 8 9 9 11 15 15 13 12 11 10 10 11 12 13 15 13 15 14 15 17 19 21 21 21 21 21 21 21 20 20 20 19 19 19 19 19 18 18 18 18 18 18
4 5 5 6 5 5 5 5 4 5 6 7 8 9 9 9 8 8 9 10 9 10 10 11 11 12 12 11 10 12 14 10 10 11 8 8 8 9 11 13 10 13 9 10 8 10 12 13 15 12 12 12 11 11 11 12 11 13 15 14 16 17 17 18 20 21 21 21 21 21 20 20 19 19 19 19 19 19 18 19 18 18 17 17 17
5 5 5 5 4 4 4 5 5 5 6 7 7 8 8 8 9 9 10 8 8 9 10 13 12 13 11 11 11 10 10 10 11 9 11 7 9 11 10 11 10 10 8 2 4 4 8 13 15 12 12 12 12 11 11 12 12 13 13 13 13 16 18 19 20 20 20 21 21 20 20 20 19 19 19 18 18 18 18 18 18 18 18 17 16
4 4 5 5 5 5 5 5 5 6 6 6 7 7 7 7 7 8 7 7 9 8 8 12 13 13 13 8 11 12 10 10 8 8 6 8 9 10 12 12 12 9 8 10 6 11 14 11 14 13 13 12 12 12 12 11 12 13 12 12 13 15 18 19 19 19 19 19 20 20 20 20 19 19 19 19 18 18 18 18 18 18 17 17 16
4 5 5 5 5 5 5 5 6 6 6 7 7 7 7 7 6 6 8 6 7 9 9 12 12 14 14 11 13 13 11 10 9 7 8 9 11 11 10 11 11 11 11 14 12 14 17 12 10 13 12 12 12 11 12 13 13 13 13 13 12 11 15 18 19 19 19 20 20 20 20 20 19 19 19 18 18 18 18 17 17 17 17 16 16
4 4 5 5 5 5 6 6 6 6 7 7 7 7 7 7 6 7 8 7 7 8 9 9 10 12 11 13 10 10 12 13 12 8 8 9 11 10 10 10 11 13 13 12 14 13 12 12 9 8 13 12 10 11 11 11 13 12 13 12 12 13 13 19 19 19 19 20 20 20 20 20 19 19 19 18 18 18 17 17 17 17 17 16 16
5 5 6 6 6 6 6 7 7 7 7 7 7 8 8 7 8 8 7 8 9 8 8 9 11 11 11 11 11 11 13 14 14 12 10 10 11 10 10 10 14 15 13 14 15 13 11 10 10 6 12 12 11 9 10 9 9 11 11 12 13 13 14 17 18 18 19 20 20 20 20 20 19 19 19 18 17 17 17 17 17 17 17 17 17
5 5 6 6 6 7 7 7 7 8 8 8 8 8 8 8 8 8 8 8 8 9 10 11 10 10 12 14 15 14 13 14 14 15 13 13 13 10 10 9 12 13 12 13 16 12 11 11 8 11 11 7 9 8 8 8 8 12 12 11 11 10 11 13 16 17 18 20 20 20 19 19 19 18 18 17 17 17 17 16 16 16 17 17 17
5 6 6 7 7 8 8 8 8 9 9 9 8 8 8 7 7 8 9 10 10 10 11 11 11 12 14 15 13 13 14 13 12 12 14 13 14 11 11 12 15 16 16 15 14 15 9 10 11 10 13 13 9 7 7 6 8 11 9 9 7 5 9 10 15 18 18 19 19 19 19 18 18 17 17 16 16 16 16 16 16 16 17 17 17
5 6 7 7 8 8 9 9 10 10 9 10 9 8 8 7 8 9 10 11 12 11 11 13 13 15 16 16 16 16 14 15 15 14 14 14 14 12 9 9 12 14 13 13 13 13 8 10 12 13 12 8 10 10 10 8 7 7 9 7 7 8 9 9 9 13 17 18 18 18 17 17 17 16 16 16 16 16 16 16 16 16 16 16 16
5 6 7 8 7 9 9 10 10 10 10 9 9 8 8 9 10 8 8 9 13 14 13 14 15 14 16 17 19 19 17 18 17 16 16 14 14 15 12 10 10 13 15 13 14 13 13 10 12 13 14 14 11 8 7 10 9 8 9 7 7 8 7 5 6 7 16 16 16 16 16 16 16 15 15 15 15 15 15 15 15 15 15 15 15
6 6 7 8 8 9 9 9 9 8 10 9 8 8 8 9 10 9 11 10 12 15 15 15 16 16 16 16 18 18 15 18 17 16 16 17 14 15 15 14 13 13 15 13 12 14 16 13 12 12 11 12 13 13 13 12 9 8 8 8 9 7 7 7 6 4 6 13 16 16 15 15 15 15 15 15 15 15 15 16 16 15 15 15 15
7 7 8 9 9 9 9 9 9 9 8 9 9 8 8 8 9 6 7 11 13 15 16 16 17 16 17 17 17 18 18 18 18 15 12 13 15 14 16 14 13 12 16 15 15 12 14 16 13 12 11 12 11 11 11 10 8 4 7 9 10 9 9 7 7 6 9 11 13 15 15 14 14 14 14 15 15 16 16 16 16 16 16 16 16
8 8 8 9 9 9 8 8 8 8 9 8 9 8 8 8 8 8 9 10 11 15 15 16 18 17 18 18 18 18 19 17 18 17 13 13 13 14 15 15 13 12 14 13 12 12 13 15 13 11 11 12 11 10 11 9 6 5 8 8 8 9 9 9 8 7 9 13 14 15 15 14 14 15 15 16 16 17 17 17 16 16 16 16 15
9 9 10 9 9 10 9 9 8 9 8 7 7 7 8 7 8 8 9 10 13 15 15 15 17 17 16 17 17 18 19 18 18 17 17 16 15 15 17 17 15 12 13 15 12 13 13 13 12 13 12 13 12 11 11 11 11 10 10 10 11 10 7 9 9 6 4 4 5 6 9 11 14 16 17 16 16 16 16 15 15 15 15 15 15
10 10 10 11 10 10 10 9 9 10 8 7 6 6 6 6 8 8 9 10 13 13 13 15 16 16 16 15 16 17 17 18 19 19 18 16 12 15 16 18 17 16 12 14 14 13 12 13 13 14 14 13 13 13 11 11 9 9 10 8 8 6 9 11 8 7 6 4 8 12 10 11 14 13 14 16 15 15 14 14 14 14 14 14 14
10 11 12 11 10 10 9 10 9 8 8 7 7 6 5 6 7 8 9 10 12 12 13 14 15 14 14 15 16 15 15 16 17 17 15 15 12 14 13 15 17 17 15 16 16 14 12 14 14 13 13 12 11 11 10 9 9 10 11 11 8 7 7 9 8 8 8 9 8 9 10 8 7 13 14 16 16 16 16 14 15 15 16 15 15
9 10 11 11 11 11 11 10 9 8 8 7 6 4 4 6 6 8 9 9 11 12 12 13 15 15 13 12 13 14 17 21 20 16 14 12 12 11 10 11 14 16 13 15 16 14 13 12 13 13 13 13 14 12 11 11 12 11 9 7 8 8 8 9 8 9 8 9 9 9 10 10 10 10 8 8 10 15 14 16 13 16 16 14 15
10 9 10 10 10 10 9 9 9 7 6 6 2 3 3 4 7 7 9 9 9 11 12 13 14 14 13 11 12 19 18 16 18 19 16 17 15 13 15 12 13 12 14 17 15 13 13 16 15 15 16 15 14 14 12 13 11 10 11 10 11 9 11 9 5 6 5 9 10 10 8 5 7 7 10 10 8 10 8 9 9 10 13 16 15
9 9 9 9 9 9 9 9 8 6 6 4 7 6 5 6 6 8 9 9 9 9 11 12 12 13 12 12 11 13 15 16 17 17 16 17 16 17 18 21 18 15 11 13 15 15 11 12 13 14 14 15 16 15 14 13 13 13 11 10 10 9 9 8 7 5 7 9 9 10 8 6 8 9 11 10 9 8 8 8 11 14 12 15 16
8 8 9 9 9 8 7 8 7 6 6 4 8 7 6 6 5 6 8 8 7 8 9 10 10 10 11 11 11 10 11 14 15 17 19 20 19 17 17 16 18 21 16 14 14 15 15 15 15 15 16 17 14 14 14 15 13 12 13 12 11 9 10 12 11 10 5 10 9 9 7 5 9 12 11 8 7 7 7 6 11 11 11 13 14
8 8 9 9 8 8 7 7 7 7 7 5 9 7 6 8 6 6 7 7 8 8 8 8 9 10 11 9 10 10 10 15 15 17 19 21 22 22 18 18 17 19 22 25 25 18 15 15 15 15 16 15 16 14 13 13 11 13 13 13 11 13 12 10 9 9 7 13 8 4 9 11 13 10 9 8 7 7 6 10 11 11 11 11 11
7 8 9 9 8 7 7 7 7 6 8 4 7 7 8 8 6 7 7 8 7 7 7 8 8 10 9 10 9 11 11 13 14 16 17 19 20 20 19 15 13 15 19 24 27 26 22 19 17 17 15 15 16 14 15 13 14 14 12 10 11 12 10 10 9 9 8 10 11 11 11 10 9 9 9 7 7 7 7 9 14 12 11 11 10
8 8 8 9 8 8 7 7 8 7 5 7 10 10 8 7 8 8 7 7 7 7 7 7 8 8 9 9 8 9 11 12 12 13 15 17 19 19 19 19 17 16 16 18 19 18 17 18 19 18 16 16 18 16 14 14 15 14 11 12 11 9 8 8 7 8 9 7 8 7 10 10 9 9 8 7 7 7 7 10 13 11 10 10 10
7 8 8 9 9 9 8 8 8 7 6 10 11 11 9 9 8 7 8 7 8 8 7 7 8 8 10 11 9 9 9 11 15 17 16 16 18 19 19 19 19 17 17 19 21 21 21 19 20 21 18 19 17 14 13 11 9 12 12 9 4 4 3 4 9 9 10 6 8 10 8 9 11 9 9 7 7 7 7 6 13 12 11 10 10
8 8 8 9 9 9 11 12 13 11 8 8 12 11 10 10 7 7 8 8 8 8 8 7 8 10 10 10 11 11 10 11 15 15 19 19 16 17 18 20 18 17 16 17 19 22 22 22 22 22 20 19 15 13 12 13 11 9 11 12 11 8 7 7 8 9 11 10 12 14 12 10 10 10 9 7 7 7 7 7 6 9 11 9 8
10 8 8 10 9 6 6 8 8 11 13 7 11 11 11 12 9 8 8 8 9 9 8 7 6 9 11 15 13 12 12 13 17 20 18 18 15 16 17 18 20 17 16 16 15 14 21 22 22 21 19 16 12 11 12 14 15 11 10 11 12 11 11 10 8 9 10 13 14 15 13 13 11 10 9 7 6 7 7 7 6 6 8 7 5
8 8 6 7 9 10 13 13 12 11 9 11 8 11 12 11 8 7 8 9 10 9 9 7 6 8 10 10 14 12 11 14 18 20 20 17 14 15 16 18 18 18 15 16 17 17 14 14 15 16 15 16 13 11 10 15 17 17 16 15 13 12 13 12 11 11 13 12 13 14 10 11 11 10 9 7 8 7 8 7 8 7 7 7 6
Wind_Direction
275 272 266 259 262 266 263 283 303 294 294 275 276 281 275 279 280 274 278 285 274 254 254 264 264 245 248 256 251 254 273 278 271 257 259 259 232 174 169 184 208 212 213 218 217 224 221 217 225 218 217 216 216 220 223 222 222 222 218 213 212 213 211 213 216 219 223 227 231 233 236 238 238 236 238 240 244 246 250 253 256 257 259 263 260
274 272 274 274 273 323 341 325 309 305 301 298 300 295 289 294 292 302 291 292 280 281 274 277 266 260 247 261 254 260 246 259 263 264 256 242 239 231 167 192 203 213 217 216 219 219 222 221 223 225 219 219 219 221 225 225 226 225 223 221 219 218 215 215 218 220 223 226 228 232 234 236 239 239 240 243 245 249 251 254 254 258 259 259 263
280 289 287 301 354 16 2 2 323 349 341 330 329 327 330 321 324 303 306 301 303 301 291 282 275 267 260 251 251 245 248 251 260 255 246 233 241 238 200 189 207 212 217 216 217 217 220 221 222 223 224 221 221 221 224 227 227 227 226 226 226 225 222 219 219 222 224 227 230 232 234 236 237 239 240 242 244 247 249 252 255 256 259 262 263
291 300 324 4 10 356 9 14 357 344 325 299 293 282 258 257 287 283 279 286 280 277 288 282 276 274 265 254 253 251 244 246 250 251 263 267 246 231 232 205 201 214 215 218 217 217 217 219 219 221 223 224 222 222 223 226 228 228 228 226 225 226 225 225 224 224 226 226 228 231 233 235 236 239 241 241 243 244 245 249 253 256 259 261 261
287 21 16 323 352 14 11 17 343 332 317 320 311 306 305 311 315 310 295 294 288 289 289 285 277 276 273 266 250 249 249 250 251 255 259 252 239 237 232 228 220 197 211 216 218 220 217 215 216 218 220 222 224 224 225 225 228 228 229 228 226 223 223 224 225 227 228 227 226 227 230 233 237 239 241 243 243 244 245 247 250 252 254 257 256
352 57 33 17 348 356 18 359 323 330 301 306 315 319 319 319 307 293 302 301 299 298 297 293 288 278 274 260 262 252 249 249 248 250 249 255 253 242 234 232 229 229 211 204 213 216 218 213 213 217 219 219 222 225 225 227 229 229 228 229 226 223 224 226 228 228 227 226 227 227 228 230 234 237 240 244 245 244 245 246 249 251 251 251 251
143 194 228 260 257 267 272 8 297 292 275 252 270 297 313 307 309 305 294 302 302 301 297 293 298 307 276 299 282 262 252 249 248 250 247 249 249 242 237 236 235 235 228 228 200 210 211 213 212 215 216 218 220 221 225 227 230 231 231 229 227 225 223 225 226 227 228 227 227 227 227 229 232 236 239 243 245 242 242 243 243 245 246 247 249
188 179 200 219 220 221 191 160 225 251 253 240 251 241 236 287 296 297 297 287 294 289 285 284 288 278 282 253 275 285 269 256 252 245 246 243 240 242 240 236 237 236 242 239 235 207 204 208 212 212 216 218 219 220 223 226 229 230 232 232 229 227 225 225 226 226 227 228 228 229 228 229 229 232 236 239 242 243 241 240 240 240 240 241 244
226 203 185 216 231 230 183 182 207 228 241 249 252 245 227 244 262 263 259 262 262 272 272 266 271 275 270 265 248 242 261 261 257 251 247 249 248 245 237 239 238 242 237 242 239 237 188 204 207 214 214 218 218 218 221 225 226 228 230 233 234 231 227 226 226 227 228 229 229 229 230 231 231 233 235 237 238 240 240 240 238 239 238 238 239
240 207 208 205 213 232 224 201 203 218 224 226 235 226 223 220 238 243 240 236 244 250 247 239 243 250 253 262 262 254 263 271 268 261 257 249 245 244 247 241 231 228 232 236 240 230 226 190 202 208 215 215 217 218 219 221 225 227 228 231 234 235 233 230 228 227 227 229 231 232 232 233 233 233 235 236 239 240 240 239 240 240 241 240 239
244 228 198 208 209 217 225 220 217 224 225 228 229 234 236 226 226 238 237 238 247 248 246 236 236 233 238 248 258 255 257 257 259 263 254 252 248 243 239 236 235 230 231 233 234 239 232 225 207 218 215 211 217 219 219 219 220 224 228 231 232 233 235 231 230 229 229 229 230 232 233 233 233 234 234 235 237 239 240 240 240 240 240 241 242
227 214 206 208 212 222 230 232 225 224 230 235 231 226 227 234 238 240 246 245 238 250 256 246 232 242 245 241 244 248 251 258 259 257 256 251 250 245 241 234 229 230 226 224 233 233 229 225 227 203 227 204 208 214 218 219 219 220 224 229 232 234 235 234 229 227 228 228 229 229 230 233 234 233 234 235 235 236 237 239 240 241 242 242 243
242 218 218 219 220 224 230 232 227 230 234 234 233 242 245 246 248 242 244 250 248 234 245 246 244 246 243 242 241 236 240 234 237 242 245 246 244 242 241 243 239 227 226 228 225 227 230 228 224 226 221 226 197 209 212 218 219 219 220 224 229 232 234 233 230 229 228 228 228 228 230 231 231 231 233 234 234 235 236 237 238 239 240 242 242
256 242 227 234 245 239 238 245 238 232 235 244 245 244 247 248 252 259 251 248 249 237 232 223 235 241 241 239 238 236 237 234 237 238 241 241 240 238 235 237 237 234 228 223 223 228 231 228 227 228 225 222 214 193 213 215 219 219 220 221 225 228 231 232 232 230 230 230 230 228 228 230 230 231 232 233 233 234 235 236 237 238 239 240 242
300 287 257 243 237 241 240 235 234 237 235 237 236 233 233 236 235 236 251 248 252 254 233 215 237 227 239 244 247 253 225 220 237 248 240 235 236 236 230 233 234 237 236 231 229 226 229 231 228 229 230 228 225 214 200 211 218 213 216 221 223 225 227 229 231 231 230 232 232 232 230 229 230 229 232 233 234 234 233 234 237 238 239 240 242
305 299 293 277 270 262 261 252 246 244 245 247 245 242 236 233 230 228 235 249 242 251 236 224 237 225 235 226 240 237 270 230 224 226 238 240 238 232 228 233 232 231 235 238 236 235 231 230 231 230 230 229 229 226 223 217 208 212 211 215 219 223 227 229 230 231 232 232 233 233 232 231 231 232 232 232 234 234 233 233 235 237 238 239 241
296 290 281 273 269 268 256 251 240 240 248 250 253 252 244 241 242 245 241 244 255 252 239 221 228 228 243 208 228 229 241 254 245 228 214 225 233 231 229 230 234 227 227 233 240 240 237 232 228 229 228 230 230 231 231 228 221 215 211 207 214 218 223 227 229 230 231 232 232 232 231 230 229 229 231 233 233 233 234 234 234 236 238 239 240
312 304 298 294 278 269 262 261 256 236 238 250 257 257 252 252 250 254 254 254 256 263 263 231 224 228 235 243 245 257 245 246 243 254 224 233 240 239 236 232 225 225 227 228 230 236 239 235 229 227 227 227 229 232 232 230 227 225 226 219 205 213 217 223 227 228 229 230 231 232 230 228 226 226 228 230 232 233 234 234 235 235 237 238 240
331 327 317 311 298 284 278 276 275 269 262 257 260 266 270 256 248 246 260 269 267 260 257 263 259 241 239 242 248 248 253 243 236 263 261 242 244 244 239 238 237 228 224 227 229 225 231 232 230 228 226 227 229 230 233 232 226 226 224 225 209 204 212 216 222 224 226 227 228 229 230 227 223 224 226 228 232 233 234 235 236 235 235 237 239
345 344 340 338 325 308 295 290 287 298 304 280 267 265 263 260 257 258 261 261 262 265 267 260 251 257 241 246 246 250 250 251 254 252 260 273 269 264 259 246 260 258 245 229 228 225 218 231 229 224 227 227 227 229 230 232 229 226 226 219 223 207 205 212 216 220 222 224 225 225 226 226 224 223 224 227 229 232 234 236 236 236 235 236 238
354 351 352 350 350 312 295 289 292 289 274 274 277 261 264 274 271 268 256 255 250 255 266 261 254 257 256 256 260 250 247 242 242 237 245 251 258 252 251 250 249 242 248 251 236 226 222 220 217 223 226 228 227 228 230 231 231 230 228 216 209 212 207 208 213 218 219 221 222 222 222 223 223 225 223 221 228 231 233 234 235 237 237 236 237
346 353 350 353 347 345 325 315 303 301 293 280 278 326 322 288 294 292 278 263 255 244 243 256 255 254 217 247 264 270 261 256 235 228 240 236 252 260 256 254 245 237 228 244 274 284 248 219 214 214 222 228 228 229 229 229 232 232 228 221 211 208 211 209 211 216 219 220 221 221 218 220 222 224 225 225 225 228 230 232 234 236 238 240 240
333 351 349 350 350 342 336 332 319 317 303 304 331 298 297 301 285 273 270 264 266 261 244 252 256 248 239 227 236 240 247 244 227 218 231 243 247 255 253 248 249 252 222 211 221 235 258 251 220 219 215 221 226 229 229 229 230 235 238 223 215 211 208 211 213 215 218 221 222 221 222 224 224 225 226 229 230 229 228 232 234 236 237 237 238
327 338 342 358 347 343 343 331 320 310 303 302 296 295 282 278 266 261 267 259 259 261 257 240 242 245 243 239 233 231 241 251 256 245 233 240 243 259 264 265 252 243 246 205 207 229 240 249 243 229 222 220 220 225 232 233 231 226 229 228 225 220 213 212 214 215 218 219 221 222 223 224 225 226 228 229 230 231 233 233 235 236 237 238 240
329 329 340 347 347 341 341 338 323 314 307 299 294 292 289 282 282 263 251 253 257 265 264 252 247 248 238 229 234 242 249 248 251 253 228 223 243 260 266 263 263 263 250 235 220 222 229 235 244 234 228 223 221 219 222 226 229 214 212 236 221 221 221 217 216 217 219 219 220 222 223 224 224 225 227 229 229 230 232 235 237 238 237 237 238
322 322 327 331 336 337 330 328 326 315 308 302 296 291 291 287 288 282 274 266 254 253 260 267 258 251 250 248 242 241 242 241 243 233 241 223 233 238 254 258 263 260 276 304 278 280 264 246 234 231 226 224 224 220 223 226 229 226 208 230 224 215 219 218 217 218 218 219 220 222 224 224 224 226 227 228 229 229 231 234 237 239 239 238 237
309 313 312 316 324 325 330 325 327 318 310 307 304 299 297 297 290 289 284 274 270 263 271 271 262 261 263 265 276 257 244 242 241 244 226 224 231 227 241 253 252 244 246 252 240 235 240 239 240 223 221 223 225 226 224 225 232 232 231 230 242 224 213 214 216 217 217 219 220 222 223 224 225 225 226 228 228 229 231 233 236 238 240 240 240
307 300 301 301 308 309 314 320 319 317 314 313 310 312 309 306 301 290 287 292 289 289 270 263 271 271 266 253 249 255 256 255 236 219 232 229 231 231 225 239 248 259 246 244 245 239 234 245 250 245 228 223 223 226 225 223 230 213 225 235 234 236 206 209 212 214 215 216 218 220 222 224 224 224 224 225 226 229 231 233 235 237 239 241 241
302 296 293 290 288 295 303 311 313 313 311 312 309 309 307 304 307 297 290 294 288 284 284 280 267 265 261 259 256 261 262 257 251 233 233 235 240 236 228 239 245 245 251 257 251 249 238 232 247 255 247 228 221 221 219 219 225 210 227 230 236 236 214 202 208 212 213 216 218 218 220 222 223 223 224 224 225 227 229 231 233 235 238 239 239
303 302 295 290 290 288 293 304 309 310 313 309 306 304 300 302 301 304 311 311 296 283 283 286 287 281 274 264 252 253 255 253 251 237 225 228 232 228 226 221 230 239 233 247 254 242 244 222 226 243 247 227 224 211 214 220 225 221 232 237 234 229 224 194 202 208 212 216 216 216 217 220 221 223 223 224 225 225 226 228 229 230 233 235 237
289 296 294 295 294 293 295 299 305 310 309 307 305 305 303 304 305 309 318 317 310 300 299 295 288 278 269 273 275 262 249 250 250 254 240 235 239 230 226 218 236 237 236 233 253 251 246 250 218 207 256 250 226 207 208 211 214 221 230 235 233 225 226 192 198 207 213 214 213 213 215 216 218 221 222 223 222 223 224 226 227 228 229 232 234
296 294 295 295 298 296 297 301 303 302 309 309 308 303 297 291 310 313 315 313 312 310 306 304 301 291 285 280 270 268 269 263 253 248 251 244 243 235 224 225 232 235 232 232 231 249 221 247 263 245 216 228 200 234 214 210 202 214 231 225 223 214 210 219 210 211 212 211 209 210 210 212 214 217 219 220 221 222 223 224 226 226 228 230 232
300 297 292 293 289 287 289 292 296 299 308 307 308 302 294 301 306 304 305 319 317 318 310 307 302 299 294 287 281 273 269 264 260 258 250 242 241 238 223 225 235 232 228 228 232 245 248 237 250 253 263 268 254 220 233 224 209 220 232 215 206 217 216 221 216 201 208 206 206 204 205 207 209 212 215 218 220 222 223 224 225 226 227 228 230
295 295 292 291 291 287 286 285 286 290 298 303 303 305 306 309 311 314 324 322 315 314 318 313 306 300 300 291 286 283 274 266 264 258 256 248 241 244 235 218 228 244 232 224 226 237 249 242 236 242 251 250 252 240 236 247 224 212 223 224 203 213 206 202 224 212 197 203 200 198 202 202 205 207 211 215 219 221 223 224 226 226 227 228 230
297 288 287 284 284 285 283 282 280 283 287 297 302 304 303 309 311 324 319 316 309 312 316 313 310 308 303 299 294 290 284 274 265 260 253 248 245 244 242 238 225 228 237 217 216 228 235 238 237 241 242 239 242 245 234 233 234 215 209 226 224 204 202 200 199 204 208 205 198 196 198 201 204 206 209 214 217 220 223 223 224 225 224 225 226
296 291 284 281 278 277 278 280 279 278 282 293 300 305 308 313 313 319 299 299 307 313 317 314 315 311 307 303 300 297 291 281 269 262 251 246 244 241 244 240 237 233 237 224 216 226 235 242 233 237 238 242 235 240 243 238 222 210 239 225 222 212 200 196 193 195 195 201 208 197 196 200 205 207 211 214 217 220 222 222 222 222 223 222 223
293 290 285 282 278 269 270 274 280 280 284 288 295 303 309 313 310 303 303 302 306 318 319 317 315 314 312 308 304 302 298 288 276 261 252 249 251 250 245 241 237 227 228 225 218 218 228 239 242 237 241 243 242 236 235 231 195 184 221 215 227 229 204 200 198 199 185 209 212 202 194 200 205 210 212 214 217 219 220 221 220 221 221 220 220
298 290 286 284 282 278 270 272 272 273 273 277 287 295 303 311 306 308 309 308 316 323 323 318 317 318 320 318 314 306 300 294 289 272 261 252 253 248 244 243 236 235 241 238 224 227 231 235 239 243 236 236 235 233 230 228 228 215 216 211 217 227 231 219 204 174 163 151 172 219 210 204 208 210 211 214 217 219 222 223 223 224 223 221 220
301 299 295 291 285 280 278 274 274 276 272 274 276 281 292 302 311 312 312 315 322 326 322 323 321 324 328 323 315 311 308 309 308 292 265 257 249 247 246 245 235 234 235 235 228 224 226 232 234 237 243 237 232 234 226 222 216 222 233 217 206 208 234 230 206 173 163 187 244 226 207 211 205 205 209 214 214 217 220 221 225 224 224 221 220
299 303 298 295 292 285 281 280 278 276 271 269 269 273 285 301 309 316 320 322 324 324 327 329 330 333 334 327 324 319 312 310 309 314 300 268 254 252 254 244 240 233 232 235 233 224 220 225 228 230 233 237 233 230 231 221 206 212 224 228 219 205 216 239 230 204 170 175 206 224 219 213 202 200 200 207 211 212 214 220 221 223 220 220 216
295 295 296 296 290 283 281 284 280 272 275 271 266 275 292 299 314 319 321 318 323 327 327 330 336 337 335 329 326 321 317 311 312 321 318 306 296 288 260 256 251 235 225 236 235 232 225 217 222 224 228 229 230 224 217 212 215 215 206 217 225 217 211 221 220 216 177 184 192 203 215 211 217 219 210 207 205 203 211 213 221 213 219 216 215
297 297 299 293 285 284 287 286 279 277 274 266 189 148 252 302 320 321 318 317 316 330 335 335 335 338 334 327 321 318 310 313 329 330 334 333 314 286 275 259 246 242 240 233 231 227 224 228 228 229 230 231 227 225 220 220 219 224 221 200 221 220 228 225 204 222 189 202 200 206 208 196 223 228 224 218 207 182 213 194 218 219 203 209 210
299 296 287 288 295 297 299 297 296 285 274 255 170 193 211 246 287 317 314 312 314 324 335 339 338 336 333 325 319 318 320 332 333 331 337 332 328 315 292 266 246 234 230 231 234 229 220 225 227 225 224 230 232 225 223 226 223 225 223 211 213 213 211 217 214 239 219 209 211 214 206 189 219 224 229 216 211 207 211 223 186 205 194 194 204
297 299 298 297 295 298 298 302 300 290 283 210 178 194 224 245 268 300 303 307 305 308 325 333 342 336 326 322 322 325 330 335 330 337 333 330 323 312 302 286 262 247 225 228 233 231 222 227 228 227 229 229 228 224 224 227 225 222 221 223 210 206 219 221 221 214 200 217 214 217 209 178 224 223 215 205 209 212 216 139 154 176 176 184 197
302 298 300 297 299 301 301 300 301 297 297 155 182 208 228 244 256 271 291 298 297 304 313 316 327 335 332 321 323 326 328 326 332 335 336 331 324 317 302 287 264 251 245 229 231 239 238 230 229 229 228 230 230 226 225 227 224 231 224 223 199 208 213 221 218 226 191 212 204 219 240 202 207 211 216 204 206 213 179 153 168 171 185 193 203
296 294 298 299 297 294 292 292 291 304 297 104 210 204 224 234 247 258 281 290 292 298 302 309 317 320 315 320 315 321 318 325 327 335 333 329 323 317 312 300 288 257 232 233 229 226 229 236 232 229 223 223 231 229 226 221 225 228 221 230 209 198 203 215 209 221 220 194 196 200 214 222 209 220 222 209 203 198 219 159 169 179 187 196 199
304 303 300 301 298 293 294 296 296 300 312 163 217 217 223 235 245 251 273 288 291 292 290 298 304 298 300 302 298 305 314 316 317 319 327 326 321 315 309 305 290 276 259 236 222 221 219 226 231 230 229 229 233 229 228 225 222 224 221 231 226 202 203 218 228 227 235 215 208 210 233 225 210 222 228 217 199 200 211 148 172 179 191 188 196
309 303 299 299 298 291 291 293 290 290 308 180 211 213 217 229 233 250 281 293 291 291 295 294 294 295 295 297 296 298 304 310 312 315 321 324 323 315 314 312 302 281 264 249 234 221 223 222 226 231 229 232 234 233 230 228 225 230 224 219 175 174 185 227 233 207 221 196 237 226 222 223 228 227 223 213 208 215 205 220 167 173 173 185 192
304 305 314 324 324 345 338 320 312 302 293 197 202 204 213 217 224 268 291 296 297 293 294 289 290 296 295 295 299 300 301 306 308 316 318 324 320 316 318 315 310 295 269 255 230 217 217 222 226 227 230 231 222 220 222 228 241 235 227 225 219 191 202 217 232 236 229 201 216 222 222 228 214 211 220 208 210 214 212 227 155 161 159 175 183
306 317 342 326 330 333 297 295 290 295 300 288 187 202 210 211 229 267 290 294 293 297 296 279 273 288 286 285 291 305 311 309 310 314 316 322 321 318 320 320 315 305 274 256 241 212 206 210 216 221 223 227 222 221 218 209 208 217 227 229 222 220 215 204 212 221 232 227 214 197 220 221 213 208 214 210 208 212 220 217 157 123 136 145 151
331 337 349 326 325 319 322 316 304 296 290 294 204 200 206 217 217 252 270 295 297 299 301 284 274 286 288 288 292 302 307 305 307 309 315 323 318 312 317 321 318 310 291 258 242 224 202 205 214 217 221 223 224 218 217 206 202 203 220 230 232 230 232 233 223 220 232 224 224 192 211 211 207 202 197 198 215 204 208 204 177 172 184 183 156